#timestamp,LO_Frequency,Hit,StdDev 
1629547215.6,286046996.4,N
1629547235.4,286046994.3,Y
1629547255.3,286046995.0,P
1629547275.1,286046996.7,P
1629547295.8,286046998.0,N
1629547315.7,286046993.3,Y
1629547335.5,286046998.6,P
1629547355.3,286047000.5,N
1629547375.2,286046998.5,N
1629547395.0,286046999.1,N
1629547395.9,286046999.1,N
1629547415.8,286046999.0,N
1629547435.6,286046999.4,N
1629547455.4,286046999.4,N
1629547475.3,286046999.2,N
1629547495.1,286046997.9,N
1629547496.0,286046997.9,N
1629547515.8,286046995.0,Y
1629547535.7,286046999.6,P
1629547555.5,286046996.6,P
1629547575.3,286046994.9,P
1629547595.2,286046996.9,N
1629547615.9,286046999.2,N
1629547635.7,286046999.1,N
1629547655.6,286046996.5,N
1629547675.4,286046998.7,N
1629547695.2,286046999.1,N
1629547715.1,286046995.4,Y
1629547716.0,286046995.4,P
1629547735.8,286046999.6,N
1629547755.6,286046996.7,N
1629547775.5,286046997.8,N
1629547795.3,286046997.6,N
1629547815.1,286046996.7,N
1629547835.9,286046995.4,Y
1629547855.7,286046999.1,P
1629547875.5,286046997.0,P
1629547895.4,286046997.4,N
1629547915.2,286046997.3,Y
1629547935.0,286046998.1,P
1629547935.9,286046998.1,P
1629547955.8,286047001.1,P
1629547975.6,286046998.1,N
1629547995.4,286046999.3,N
1629548015.3,286047001.1,N
1629548035.1,286047000.2,N
1629548055.8,286047002.4,N
1629548075.7,286047000.8,N
1629548095.5,286046998.2,N
1629548115.3,286046998.6,N
1629548135.2,286046998.3,N
1629548155.0,286046998.8,N
1629548155.9,286046998.8,N
1629548175.7,286046999.0,N
1629548195.6,286046999.3,N
1629548215.4,286046998.7,N
1629548235.2,286046999.3,N
1629548255.1,286046998.5,N
1629548256.0,286046998.5,N
1629548275.8,286046999.5,N
1629548295.6,286046999.5,N
1629548315.5,286046996.6,N
1629548335.3,286046999.4,N
1629548355.1,286046996.8,N
1629548375.9,286046999.2,N
1629548395.7,286046996.9,N
1629548415.5,286046997.7,N
1629548435.4,286046997.4,N
1629548455.2,286046996.9,N
1629548475.0,286046996.6,N
1629548475.9,286046996.6,N
1629548495.8,286046998.0,N
1629548515.6,286046995.7,Y
1629548535.4,286046995.3,P
1629548555.3,286046997.5,N
1629548575.1,286046996.4,N
1629548595.8,286046995.7,Y
1629548615.7,286046996.5,P
1629548635.5,286046999.6,N
1629548655.3,286046999.2,N
1629548675.2,286046997.3,N
1629548695.0,286046996.5,N
1629548695.9,286046996.5,N
1629548715.8,286046999.1,N
1629548735.6,286046997.3,N
1629548755.4,286046995.5,Y
1629548775.3,286046999.2,P
1629548795.1,286046999.2,N
1629548796.0,286046999.2,N
1629548815.8,286046999.6,N
1629548835.7,286046998.6,N
1629548855.5,286046999.3,N
1629548875.3,286046997.3,Y
1629548895.2,286046998.5,P
1629548915.9,286046998.5,P
1629548935.7,286047000.8,P
1629548955.6,286046998.1,N
1629548975.4,286046998.1,N
1629548995.2,286046999.2,N
1629549015.1,286046996.7,Y
1629549016.0,286046996.7,P
1629549035.8,286046999.4,N
1629549055.6,286046996.5,P
1629549075.5,286046999.0,N
1629549095.3,286046999.5,N
1629549115.1,286046996.7,N
1629549135.9,286046997.7,N
1629549155.7,286046996.6,N
1629549175.5,286046999.2,N
1629549195.4,286046998.9,N
1629549215.2,286046998.2,N
1629549235.0,286046996.5,Y
1629549235.9,286046996.5,P
1629549255.8,286047001.1,N
1629549275.6,286047002.7,N
1629549295.4,286047000.5,N
1629549315.3,286047000.3,N
1629549335.1,286047001.0,N
1629549355.8,286047001.1,N
1629549375.7,286047000.7,N
1629549395.5,286046999.1,N
1629549415.3,286046998.7,N
1629549435.2,286046998.8,N
1629549455.9,286046999.3,N
1629549475.7,286046998.7,N
1629549495.6,286046998.4,N
1629549515.4,286046998.3,N
1629549535.2,286046998.4,N
1629549555.1,286047001.0,N
1629549556.0,286047001.0,N
1629549575.8,286047001.0,N
1629549595.6,286047001.1,N
1629549615.5,286046998.3,N
1629549635.3,286046999.2,N
1629549655.1,286046998.8,N
1629549675.9,286046998.8,N
1629549695.7,286046998.8,N
1629549715.5,286046998.5,N
1629549735.4,286047000.7,N
1629549755.2,286047000.8,N
1629549775.0,286046999.9,N
1629549775.9,286046999.9,N
1629549795.8,286046998.3,N
1629549815.6,286046998.5,N
1629549835.4,286046998.2,N
1629549855.3,286046999.2,N
1629549875.1,286046997.6,N
1629549895.8,286046997.2,N
1629549915.7,286046996.9,N
1629549935.5,286046999.3,N
1629549955.3,286046998.9,N
1629549975.2,286046998.3,N
1629549995.0,286046997.8,N
1629549995.9,286046997.8,N
1629550015.7,286046998.9,N
1629550035.6,286046998.5,N
1629550055.4,286046998.5,N
1629550075.2,286047000.7,N
1629550095.1,286047000.1,N
1629550096.0,286047000.1,N
1629550115.8,286047000.3,N
1629550135.6,286047000.6,N
1629550155.5,286047000.5,N
1629550175.3,286046998.5,N
1629550195.1,286047000.4,N
1629550215.9,286047000.8,N
1629550235.7,286046999.9,N
1629550255.5,286047002.6,N
1629550275.4,286047000.6,N
1629550295.2,286047000.4,N
1629550315.1,286046999.6,N
1629550316.0,286046999.6,N
1629550335.8,286046998.8,N
1629550355.6,286046996.9,N
1629550375.5,286046998.3,N
1629550395.3,286047001.0,N
1629550415.1,286047002.2,N
1629550435.9,286047002.0,N
1629550455.7,286047002.2,N
1629550475.5,286047001.9,N
1629550495.4,286047002.7,N
1629550515.2,286046999.9,N
1629550535.0,286046999.7,N
1629550535.9,286046999.7,N
1629550555.8,286047002.4,N
1629550575.6,286047003.8,N
1629550595.4,286047004.4,N
1629550615.3,286047004.0,N
1629550635.1,286047001.7,N
1629550636.0,286047001.7,N
1629550655.8,286047003.5,N
1629550675.7,286047004.4,N
1629550695.5,286047002.2,N
1629550715.3,286046999.9,N
1629550735.2,286047001.9,N
1629550755.9,286047002.1,N
1629550775.7,286047002.5,N
1629550795.6,286047001.6,N
